DW7538 Weather Reports


Display with metric or nautical units.
time (UTC)temp
F
wind
direction
speed
MPH
gust
MPH
rain 1hr
in
rain 24hr
in
rain mn
in
humidity
%
barometer
mb
20260506231556 73 235 0.0 6.0 0.00 0.00 0.00 34 1005.5
20260506224559 74 283 1.0 8.0 0.00 0.00 0.00 34 1005.5
20260506223053 74 237 4.0 11.0 0.00 0.00 0.00 30 1005.6
20260506221552 74 333 0.0 4.0 0.00 0.00 0.00 27 1005.7
20260506220054 75 277 2.0 6.0 0.00 0.00 0.00 27 1005.6
20260506214552 75 247 1.0 11.0 0.00 0.00 0.00 26 1005.6
20260506213052 76 201 2.0 12.0 0.00 0.00 0.00 25 1005.6
20260506211551 76 276 2.0 12.0 0.00 0.00 0.00 26 1005.6
20260506210050 76 350 4.0 12.0 0.00 0.00 0.00 26 1005.6
20260506204550 77 264 5.0 14.0 0.00 0.00 0.00 25 1005.6
20260506203049 78 360 4.0 10.0 0.00 0.00 0.00 27 1005.5
20260506201548 79 345 2.0 10.0 0.00 0.00 0.00 27 1005.4
20260506200046 79 32 3.0 11.0 0.00 0.00 0.00 29 1005.4
20260506194547 79 318 2.0 9.0 0.00 0.00 0.00 32 1005.4
20260506193045 78 314 5.0 13.0 0.00 0.00 0.00 32 1005.5
20260506191543 79 302 1.0 11.0 0.00 0.00 0.00 36 1005.6
20260506190043 79 311 1.0 8.0 0.00 0.00 0.00 35 1005.8
20260506184548 79 55 1.0 4.0 0.00 0.00 0.00 35 1005.8
20260506183039 78 174 0.0 1.0 0.00 0.00 0.00 35 1005.9
20260506181535 76 102 1.0 8.0 0.00 0.00 0.00 37 1005.9
20260506180033 75 29 0.0 4.0 0.00 0.00 0.00 39 1006.1
20260506174531 75 356 0.0 4.0 0.00 0.00 0.00 38 1006.0
20260506173032 74 77 0.0 5.0 0.00 0.00 0.00 39 1006.2
20260506171528 73 120 0.0 4.0 0.00 0.00 0.00 39 1006.3
20260506170024 72 24 0.0 4.0 0.00 0.00 0.00 39 1006.3
20260506164521 71 315 0.0 4.0 0.00 0.00 0.00 41 1006.5
20260506163025 70 1 2.0 6.0 0.00 0.00 0.00 44 1006.5
20260506161516 70 342 0.0 4.0 0.00 0.00 0.00 41 1006.5
20260506160015 69 316 0.0 7.0 0.00 0.00 0.00 41 1006.6
20260506154510 68 13 0.0 3.0 0.00 0.00 0.00 41 1006.7
20260506153007 67 12 4.0 8.0 0.00 0.00 0.00 42 1006.9
20260506151503 66 349 0.0 5.0 0.00 0.00 0.00 44 1006.9
20260506150002 66 248 1.0 4.0 0.00 0.00 0.00 45 1007.0
20260506144559 64 273 0.0 3.0 0.00 0.00 0.00 47 1006.9
20260506143059 63 262 0.0 4.0 0.00 0.00 0.00 47 1006.9
20260506141557 61 250 0.0 3.0 0.00 0.00 0.00 52 1006.9
20260506140058 60 91 0.0 1.0 0.00 0.00 0.00 53 1006.9
20260506134553 0 0.0 0.0 0.00 0.00 0.00 1006.8
20260506133049 0 0.0 0.0 0.00 0.00 0.00 1006.7
20260506131551 0 0.0 0.0 0.00 0.00 0.00 1006.6
20260506130057 0 0.0 0.0 0.00 0.00 0.00 1006.7
20260506124536 0 0.0 0.0 0.00 0.00 0.00 1006.5
20260506123032 0 0.0 0.0 0.00 0.00 0.00 1006.6
20260506121529 59 75 0.0 2.0 0.00 0.00 0.00 52 1006.5
20260506120029 58 108 0.0 0.0 0.00 0.00 0.00 53 1006.6
20260506114528 59 112 0.0 2.0 0.00 0.00 0.00 52 1006.5
20260506113022 59 104 0.0 2.0 0.00 0.00 0.00 52 1006.5
20260506111522 60 266 0.0 5.0 0.00 0.00 0.00 51 1006.4
20260506110022 61 111 0.0 4.0 0.00 0.00 0.00 50 1006.3
20260506104517 61 77 0.0 2.0 0.00 0.00 0.00 48 1006.2
20260506103015 61 118 0.0 5.0 0.00 0.00 0.00 50 1006.0
20260506101522 60 273 0.0 1.0 0.00 0.00 0.00 49 1005.9
20260506100011 60 63 0.0 2.0 0.00 0.00 0.00 49 1005.9
20260506094520 61 108 0.0 4.0 0.00 0.00 0.00 48 1005.8
20260506093013 61 127 1.0 3.0 0.00 0.00 0.00 49 1005.8
20260506091507 61 113 0.0 3.0 0.00 0.00 0.00 49 1005.8
20260506090003 61 106 0.0 2.0 0.00 0.00 0.00 49 1005.9
20260506084502 62 66 0.0 3.0 0.00 0.00 0.00 48 1005.8
20260506083101 62 115 0.0 2.0 0.00 0.00 0.00 47 1005.8
20260506081601 63 108 0.0 2.0 0.00 0.00 0.00 46 1005.8
20260506073051 66 242 0.0 5.0 0.00 0.00 0.00 42 1005.5
20260506071547 66 257 0.0 6.0 0.00 0.00 0.00 42 1005.4
20260506061541 66 112 0.0 1.0 0.00 0.00 0.00 39 1004.9
20260506044627 65 263 0.0 1.0 0.00 0.00 0.00 41 1004.5
20260506043038 65 199 0.0 3.0 0.00 0.00 0.00 42 1004.4
20260506041538 66 284 0.0 5.0 0.00 0.00 0.00 41 1004.4
20260506040037 67 264 0.0 5.0 0.00 0.00 0.00 41 1004.3
20260506034602 68 253 0.0 4.0 0.00 0.00 0.00 40 1004.1
20260506033037 69 271 0.0 3.0 0.00 0.00 0.00 39 1003.9
20260506031535 70 325 0.0 1.0 0.00 0.00 0.00 38 1003.7
20260506030035 72 250 0.0 5.0 0.00 0.00 0.00 37 1003.5
20260506024534 74 290 0.0 0.0 0.00 0.00 0.00 38 1003.3
20260506023045 77 274 0.0 4.0 0.00 0.00 0.00 37 1003.2
20260506021534 78 253 0.0 3.0 0.00 0.00 0.00 39 1003.1
20260506020035 80 253 0.0 4.0 0.00 0.00 0.00 36 1003.0
20260506014533 81 260 0.0 3.0 0.00 0.00 0.00 35 1002.9
20260506013029 82 276 0.0 1.0 0.00 0.00 0.00 35 1002.9
20260506011524 81 249 0.0 4.0 0.00 0.00 0.00 34 1002.9
20260506010021 81 260 0.0 2.0 0.00 0.00 0.00 33 1002.9
20260506004532 82 294 0.0 3.0 0.00 0.00 0.00 30 1002.9
20260506003027 81 107 0.0 2.0 0.00 0.00 0.00 31 1002.9
20260506001512 82 348 0.0 5.0 0.00 0.00 0.00 31 1002.9
20260506000010 81 103 1.0 5.0 0.00 0.00 0.00 32 1003.1
20260505234510 82 322 0.0 5.0 0.00 0.00 0.00 30 1003.3
20260505233007 82 6 0.0 3.0 0.00 0.00 0.00 28 1003.4